Weather reports worldwide

Advertisment
Valdepena, Spain (8351): temperature & dewpoint: 18.01.2020 02:00:00 - 24.01.2020 02:00:00 (CET)Valdepena, Spain (8351): wind speed & gusts: 18.01.2020 02:00:00 - 24.01.2020 02:00:00 (CET)Valdepena, Spain (8351): wind direction: 18.01.2020 02:00:00 - 24.01.2020 02:00:00 (CET)Valdepena, Spain (8351): reduced air pressure: 18.01.2020 02:00:00 - 24.01.2020 02:00:00 (CET)Valdepena, Spain (8351): visibility: 18.01.2020 02:00:00 - 24.01.2020 02:00:00 (CET)Valdepena, Spain (8351): sunshine duration: 18.01.2020 02:00:00 - 24.01.2020 02:00:00 (CET)Valdepena, Spain (8351): precipitation: 18.01.2020 02:00:00 - 24.01.2020 02:00:00 (CET)
Date & Time tt [°C] td [°C] ff [km/h] ff [kn] fx [km/h] fx [kn] dd ppp [hPa] vv [km] sd [min] rr [mm]
24.01.2020 02:00:00 - - - - - - - - - - -
24.01.2020 01:00:00 4,4 1,7 14 7 18 10 NE 1020,6 19 0 -
24.01.2020 00:00:00 4,9 1,5 8 4 19 11 NE 1020,3 20 0 0,0
23.01.2020 23:00:00 5,2 1,5 10 5 16 9 NNE 1020,1 20 0 0,0
23.01.2020 22:00:00 6,8 1,9 8 4 14 8 ENE 1019,4 19 0 0,0
23.01.2020 21:00:00 7,6 4,3 4 2 10 6 NE 1018,8 15 0 0,0
23.01.2020 20:00:00 7,5 4,3 2 1 4 2 ESE 1018,5 13 0 0,0
23.01.2020 19:00:00 8,8 3,9 1 1 8 5 NNW 1017,7 15 0 -
23.01.2020 18:00:00 10,1 3,9 5 3 10 5 NNW 1017,0 17 0 0,0
23.01.2020 17:00:00 10,7 3,4 5 3 13 7 NNW 1016,7 17 0 0,0
23.01.2020 16:00:00 11,4 3,2 6 4 14 8 NNW 1016,3 20 0 0,0
23.01.2020 15:00:00 11,7 1,3 6 3 12 7 NNW 1016,2 20 41 0,0
23.01.2020 14:00:00 11,5 2,9 8 5 14 8 N 1016,7 20 54 0,0
23.01.2020 13:00:00 9,2 3,6 3 2 6 4 NNW 1018,2 16 7 -
23.01.2020 12:00:00 7,6 3,0 1 1 7 4 N 1019,4 16 4 0,0
23.01.2020 11:00:00 5,6 2,5 3 2 18 10 NNE 1020,0 19 17 0,0
23.01.2020 10:00:00 2,4 0,0 14 8 22 12 NE 1020,4 20 11 0,0
23.01.2020 09:00:00 0,9 -1,0 3 1 14 7 N 1020,1 20 0 0,0
23.01.2020 08:00:00 1,4 -0,7 3 2 13 7 W 1019,6 20 0 0,0
23.01.2020 07:00:00 1,5 -1,0 6 3 15 8 NNE 1019,1 20 0 -
23.01.2020 06:00:00 2,2 -0,3 9 5 14 8 NE 1018,8 20 0 0,0
23.01.2020 05:00:00 1,4 -0,7 3 1 8 4 ESE 1019,4 20 0 0,0
23.01.2020 04:00:00 1,7 -0,5 3 1 8 4 N 1019,4 20 0 0,0
23.01.2020 03:00:00 2,5 0,2 9 5 14 8 NNE 1019,0 20 0 0,0
23.01.2020 02:00:00 3,3 1,3 6 3 10 5 NNE 1018,9 20 0 0,0
23.01.2020 01:00:00 3,8 1,3 5 3 12 6 N 1018,7 20 0 -
23.01.2020 00:00:00 4,0 1,3 4 2 10 6 NNE 1018,9 20 0 0,0
22.01.2020 23:00:00 3,8 0,9 4 2 10 6 N 1018,5 20 0 0,0
22.01.2020 22:00:00 4,1 0,9 3 2 13 7 N 1018,2 20 0 0,0
22.01.2020 21:00:00 5,5 0,6 7 4 20 11 ENE 1017,2 20 0 0,0
22.01.2020 20:00:00 6,9 1,1 8 5 17 9 ENE 1016,7 20 0 0,0
22.01.2020 19:00:00 8,1 2,1 8 4 17 9 NE 1015,8 20 0 -
22.01.2020 18:00:00 9,4 1,7 9 5 16 9 ENE 1015,1 20 0 0,0
22.01.2020 17:00:00 10,5 1,3 7 4 23 13 NE 1014,5 20 22 0,0
22.01.2020 16:00:00 10,9 1,5 13 7 24 13 ENE 1014,5 20 28 0,0
22.01.2020 15:00:00 10,8 1,9 10 5 22 12 NE 1014,7 20 25 0,0
22.01.2020 14:00:00 10,6 2,9 10 6 27 15 NE 1015,4 20 42 0,0
22.01.2020 13:00:00 10,1 2,9 11 6 26 14 NE 1016,4 20 56 -
22.01.2020 12:00:00 9,4 2,9 11 6 27 14 NE 1017,0 20 60 0,0
22.01.2020 11:00:00 6,6 2,3 13 7 25 13 NE 1017,9 20 21 0,0
22.01.2020 10:00:00 3,9 1,5 10 5 21 11 NE 1018,3 20 0 0,0
22.01.2020 09:00:00 3,0 1,3 8 5 21 11 NE 1018,2 20 0 0,0
22.01.2020 08:00:00 1,4 0,4 5 3 10 5 NE 1018,4 20 0 0,0
22.01.2020 07:00:00 1,1 -0,3 2 1 11 6 E 1017,7 20 0 -
22.01.2020 06:00:00 1,2 0,0 3 1 8 4 E 1017,6 20 0 0,0
22.01.2020 05:00:00 1,6 0,4 4 2 7 4 N 1017,4 20 0 0,0
22.01.2020 04:00:00 2,1 0,6 3 2 12 6 N 1017,5 20 0 0,0
22.01.2020 03:00:00 2,0 0,6 3 2 6 3 N 1017,3 20 0 0,0
22.01.2020 02:00:00 2,3 1,1 4 2 13 7 N 1017,2 14 0 0,0
22.01.2020 01:00:00 2,7 1,3 9 5 18 10 NE 1017,1 19 0 -
22.01.2020 00:00:00 2,3 0,9 7 4 14 7 NNE 1017,4 17 0 0,0
21.01.2020 23:00:00 2,9 1,1 8 4 19 10 NNE 1016,9 19 0 0,0
21.01.2020 22:00:00 3,1 1,1 2 1 9 5 W 1017,0 20 0 0,0
21.01.2020 21:00:00 3,5 1,3 6 3 27 14 NNE 1016,2 20 0 0,0
21.01.2020 20:00:00 3,8 1,3 12 7 22 12 NNE 1015,4 20 0 0,0
21.01.2020 19:00:00 4,2 1,5 9 5 37 20 NNE 1015,0 20 0 -
21.01.2020 18:00:00 4,6 1,7 20 11 37 20 NNE 1014,6 20 0 0,0
21.01.2020 17:00:00 5,5 2,1 19 10 39 21 NNE 1013,6 20 0 0,0
21.01.2020 16:00:00 5,1 2,1 13 7 29 15 N 1012,7 20 0 0,0
21.01.2020 15:00:00 4,8 1,9 14 7 34 18 N 1013,8 20 4 0,0
21.01.2020 14:00:00 4,9 2,3 13 7 36 19 N 1014,0 20 6 0,2
21.01.2020 13:00:00 3,7 1,7 11 6 31 17 N 1015,6 20 0 -
21.01.2020 12:00:00 3,3 0,9 12 7 27 15 NNW 1016,7 20 0 0,0
21.01.2020 11:00:00 2,0 0,4 14 7 27 15 N 1017,5 20 0 0,0
21.01.2020 10:00:00 1,2 0,0 13 7 34 18 NNW 1017,5 20 0 0,0
21.01.2020 09:00:00 1,0 -0,3 11 6 25 13 NNW 1017,4 18 0 0,2
21.01.2020 08:00:00 1,3 -0,7 13 7 33 18 NNW 1017,8 11 0 0,4
21.01.2020 07:00:00 2,3 -0,5 13 7 29 15 NNW 1017,1 20 0 -
21.01.2020 06:00:00 2,7 0,9 12 7 27 15 NNW 1017,5 20 0 0,0
21.01.2020 05:00:00 2,9 0,9 14 8 27 15 N 1018,0 20 0 0,0
21.01.2020 04:00:00 2,9 0,6 9 5 34 18 N 1018,6 20 0 0,0
21.01.2020 03:00:00 2,8 0,4 13 7 41 22 N 1018,9 20 0 0,0
21.01.2020 02:00:00 3,1 0,4 16 9 34 19 N 1019,4 20 0 0,0
21.01.2020 01:00:00 3,3 0,6 15 8 31 17 N 1020,2 20 0 -
21.01.2020 00:00:00 3,2 0,9 14 8 33 18 N 1020,4 20 0 0,0
20.01.2020 23:00:00 3,3 1,3 15 8 32 18 N 1020,3 20 0 0,0
20.01.2020 22:00:00 3,7 1,5 17 9 37 20 N 1019,9 20 0 0,0
20.01.2020 21:00:00 3,8 1,7 14 7 29 16 N 1019,6 19 0 0,0
20.01.2020 20:00:00 4,0 2,1 8 4 24 13 N 1019,5 18 0 0,0
20.01.2020 19:00:00 4,1 1,9 14 7 33 18 N 1019,3 14 0 -
20.01.2020 18:00:00 4,7 1,3 16 8 33 18 N 1018,5 20 0 0,0
20.01.2020 17:00:00 4,0 1,1 16 9 37 20 N 1018,5 20 0 0,0
20.01.2020 16:00:00 3,9 0,6 14 8 35 19 N 1018,6 20 0 0,0
20.01.2020 15:00:00 4,0 0,2 14 8 35 19 N 1019,0 20 0 0,0
20.01.2020 14:00:00 3,5 -0,7 13 7 27 14 N 1019,4 20 0 0,0
20.01.2020 13:00:00 2,4 -2,5 12 7 37 20 NNW 1020,6 20 0 -
20.01.2020 12:00:00 0,9 -2,0 18 10 34 19 N 1021,4 20 0 0,0
20.01.2020 11:00:00 0,0 -2,5 16 9 42 23 NNW 1022,1 20 0 0,0
20.01.2020 10:00:00 0,5 -3,3 17 9 41 22 N 1021,1 20 0 0,0
20.01.2020 09:00:00 0,7 -5,1 14 7 35 19 NNW 1020,7 20 0 0,0
20.01.2020 08:00:00 0,7 -4,5 13 7 31 17 NNW 1021,1 20 0 0,0
20.01.2020 07:00:00 0,9 -4,8 15 8 37 20 NNW 1021,0 20 0 -
20.01.2020 06:00:00 0,9 -4,8 15 8 37 20 NNW 1021,4 20 0 0,0
20.01.2020 05:00:00 1,0 -4,8 17 9 39 21 NNW 1021,8 20 0 0,0
20.01.2020 04:00:00 1,1 -4,5 16 8 35 19 NNW 1022,0 20 0 0,0
20.01.2020 03:00:00 1,1 -4,2 16 9 40 22 NNW 1022,1 20 0 0,0
20.01.2020 02:00:00 1,2 -3,6 16 9 34 18 NNW 1022,6 20 0 0,0
20.01.2020 01:00:00 1,4 -2,7 14 7 36 20 NNW 1022,9 20 0 -
20.01.2020 00:00:00 1,4 -0,5 11 6 30 16 NNW 1023,2 20 0 0,0
19.01.2020 23:00:00 1,7 0,6 13 7 34 19 NNW 1023,2 20 0 0,0
19.01.2020 22:00:00 1,6 0,6 14 8 34 18 N 1022,9 20 0 0,4
19.01.2020 21:00:00 1,3 0,2 13 7 29 16 NNW 1022,6 19 0 0,2
19.01.2020 20:00:00 2,1 0,6 15 8 31 17 N 1022,2 15 0 0,8
19.01.2020 19:00:00 2,6 1,1 12 6 39 21 N 1021,8 8 0 -
19.01.2020 18:00:00 3,6 1,9 11 6 30 16 N 1020,6 5 0 1,2
19.01.2020 17:00:00 4,4 2,3 17 9 43 23 N 1019,8 8 0 0,4
19.01.2020 16:00:00 4,9 2,3 15 8 46 25 NNW 1019,1 20 0 0,2
19.01.2020 15:00:00 6,5 1,3 22 12 51 28 NNW 1018,2 20 0 0,0
19.01.2020 14:00:00 6,5 2,1 18 10 42 23 NNW 1018,6 20 0 0,0
19.01.2020 13:00:00 6,4 2,3 21 11 40 22 NNW 1019,1 20 0 -
19.01.2020 12:00:00 5,6 2,9 12 6 39 21 NW 1020,3 11 0 0,4
19.01.2020 11:00:00 5,6 2,9 11 6 21 11 NW 1020,3 11 0 0,4
19.01.2020 10:00:00 5,4 2,7 4 2 8 4 NW 1019,9 20 4 0,0
19.01.2020 09:00:00 3,6 1,3 1 1 6 3 SW 1020,4 20 0 0,0
19.01.2020 08:00:00 4,6 1,9 3 2 11 6 NW 1020,1 20 0 0,0
19.01.2020 07:00:00 5,5 2,3 6 3 16 9 NW 1019,9 20 0 -
19.01.2020 06:00:00 5,7 2,5 8 5 17 9 NW 1019,7 20 0 0,2
19.01.2020 05:00:00 5,1 2,9 3 2 10 5 W 1020,4 20 0 0,0
19.01.2020 04:00:00 5,7 2,9 4 2 27 15 NW 1020,7 20 0 0,0
19.01.2020 03:00:00 7,6 5,6 5 3 20 11 W 1020,7 20 0 0,6
19.01.2020 02:00:00 7,9 5,0 12 6 34 19 SW 1020,7 20 0 0,0
19.01.2020 01:00:00 8,7 5,6 16 9 34 18 SW 1020,9 20 0 -
19.01.2020 00:00:00 9,3 7,6 5 3 20 11 SW 1021,5 20 0 0,2
18.01.2020 23:00:00 9,5 7,8 10 5 21 11 S 1021,6 20 0 0,0
18.01.2020 22:00:00 9,2 7,4 11 6 20 11 SSE 1022,1 20 0 0,0
18.01.2020 21:00:00 9,0 7,3 11 6 24 13 SSE 1022,5 20 0 0,0
18.01.2020 20:00:00 9,7 7,8 10 5 22 12 S 1023,6 19 0 0,0
18.01.2020 19:00:00 9,8 7,0 11 6 29 16 S 1023,9 20 0 -
18.01.2020 18:00:00 10,2 6,8 17 9 32 18 S 1024,3 20 0 0,0
18.01.2020 17:00:00 10,2 6,8 13 7 34 18 S 1024,8 20 0 0,0
18.01.2020 16:00:00 9,3 7,1 9 5 27 15 SSE 1025,9 20 0 0,0
18.01.2020 15:00:00 9,4 6,2 14 8 28 15 SSE 1026,7 20 0 0,0
18.01.2020 14:00:00 9,7 6,4 13 7 29 16 SSE 1027,7 14 0 0,0
18.01.2020 13:00:00 9,8 6,7 14 7 27 15 SSE 1028,9 16 0 -
18.01.2020 12:00:00 9,5 7,0 12 7 23 12 SSE 1030,7 20 0 0,0
18.01.2020 11:00:00 8,1 6,4 9 5 18 10 SSE 1031,6 20 0 0,0
18.01.2020 10:00:00 6,9 5,6 4 2 10 6 SE 1031,8 15 0 0,6
18.01.2020 09:00:00 6,3 5,0 5 3 11 6 NNE 1032,3 12 0 1,4
18.01.2020 08:00:00 6,1 4,3 3 2 14 8 ENE 1032,3 6 0 0,4
18.01.2020 07:00:00 5,7 3,0 2 1 8 4 W 1032,3 20 0 -
18.01.2020 06:00:00 5,3 2,9 4 2 8 5 ESE 1031,4 20 0 0,0
18.01.2020 05:00:00 5,4 2,7 5 3 9 5 NNE 1030,8 20 0 0,0
18.01.2020 04:00:00 4,6 1,9 3 1 8 4 ESE 1032,7 20 0 0,0
18.01.2020 03:00:00 4,7 1,7 4 2 8 4 N 1032,9 20 0 0,0
18.01.2020 02:00:00 5,2 2,3 3 2 11 6 NE 1032,4 20 0 0,0

tt = temperature
td = dewpoint
ff = wind speed
fx = gusts
dd = wind direction
ppp = reduced air pressure
vv = visibility
sd = sunshine duration
rr = precipitation

Next stations